www.pogodaiklimat.ru

Погода и климат >> Архив погоды >> Албания >> Кукес


ПОГОДА в Кукесе

  • Прогноз погоды в Кукесе
  • Монитор погоды в Кукесе

АРХИВ ПОГОДЫ в Кукесе

Время (UTC), дата Ветер
(напр.,м/с)
 
Видим.   Явления Облачность Т
(С)
Тd
(С)
f
(%)
Тe
(С)
Тes
(С)
Комфортность P
(гПа)
Po
(гПа)
Тmin
(С)
Tmax
(С)
R
(мм)
R24
(мм)
S
(см)
12 12.06 СЗ 2 15 км 1/1 1500 м
[Cu hum]
+27.0 +17.2 55 +31 +47 душно 1013.9 974.1
15 12.06 С 2 15 км 3/0
[Ac trans]
+29.4 +17.3 48 +33 +39 душно 1012.3 972.9
18 12.06 штиль 0 15 км 3/0
[Ac trans]
+27.6 +18.1 56 +32 +32 очень
душно
1012.1 972.5 +30.2
21 12.06 штиль 0 10 км 1/0
[Ac trans]
+24.6 +16.3 60 +28 +28 душно 1013.4 973.3
00 13.06 штиль 0 10 км ясно +21.8 +17.8 78 +26 +26 душно 1014.4 973.9
03 13.06 штиль 0 10 км ясно +19.0 +15.9 82 +20 +20 1015.4 974.5
06 13.06 штиль 0 15 км ясно +18.8 +15.1 79 +20 +27 1015.8 974.9 +17.0
09 13.06 штиль 0 15 км ясно +26.0 +19.2 66 +31 +55 опасность
солнечного
удара
1015.6 975.6
12 13.06 СВ 2 15 км ясно +31.0 +19.7 51 +37 +55 опасность
солнечного
удара
1014.0 974.7
15 13.06 штиль 0 15 км ясно +34.0 +18.4 40 +39 +48 очень
душно
1013.1 974.2
18 13.06 штиль 0 15 км ясно +31.6 +17.9 44 +36 +36 очень
душно
1013.0 973.8 +35.0
21 13.06 штиль 0 10 км ясно +27.0 +15.6 50 +30 +30 душно 1014.2 974.4
00 14.06 штиль 0 10 км ясно +23.2 +16.0 64 +28 +28 душно 1015.7 975.3
03 14.06 штиль 0 10 км ясно +20.6 +16.4 77 +24 +24 комфорт 1016.3 975.5
06 14.06 штиль 0 15 км ясно +21.8 +18.1 80 +27 +34 душно 1016.7 976.1 +18.0
09 14.06 штиль 0 15 км ясно +25.2 +16.7 59 +29 +52 опасность
солнечного
удара
1018.3 978.1
12 14.06 ЮВ 4 15 км 1/0
[As trans]
+29.8 +16.3 44 +33 +44 душно 1016.8 977.2
15 14.06 СВ 6 15 км 5/0
[Ac trans]
+32.0 +15.5 37 +34 +36 душно 1015.8 976.6
18 14.06 СВ 6 15 км ясно +29.8 +16.3 44 +33 +33 душно 1015.7 976.2 +32.6
21 14.06 штиль 0 10 км ясно +25.2 +19.3 70 +30 +30 душно 1015.3 975.2
03 15.06 штиль 0 10 км ясно +20.2 +17.2 83 +23 +23 комфорт 1016.9 976.1
06 15.06 штиль 0 15 км ясно +21.0 +18.8 87 +25 +33 комфорт 1017.0 976.3 +17.4
09 15.06 штиль 0 15 км ясно +24.8 +17.5 64 +29 +52 опасность
солнечного
удара
1017.3 977.1
12 15.06 штиль 0 15 км ясно +29.6 +16.8 46 +33 +57 опасность
солнечного
удара
1015.4 975.9
15 15.06 СЗ 4 15 км 3/0
[Ac trans]
+32.2 +18.8 45 +37 +41 очень
душно
1012.0 972.9
18 15.06 штиль 0 15 км 3/0
[Ac trans]
+30.0 +17.8 48 +34 +34 очень
душно
1011.4 972.1 +33.0
21 15.06 штиль 0 10 км 3/0
[Ac trans]
+25.4 +17.8 63 +30 +30 душно 1012.5 972.5
00 16.06 штиль 0 10 км ясно +22.4 +17.3 73 +27 +27 душно 1013.5 973.1
03 16.06 штиль 0 10 км ясно +20.8 +16.8 78 +24 +24 комфорт 1013.7 973.1
06 16.06 штиль 0 15 км ясно +21.2 +17.0 77 +25 +33 комфорт 1014.1 973.5 +19.2
09 16.06 штиль 0 15 км ясно +25.4 +18.6 66 +30 +53 опасность
солнечного
удара
1015.0 974.9
12 16.06 штиль 0 15 км ясно +29.8 +17.3 47 +34 +58 опасность
солнечного
удара
1013.8 974.3
15 16.06 СЗ 2 10 км 8/0
[Ac und]
+29.6 +16.8 46 +33 +36 душно 1011.1 971.7
18 16.06 Ю 2 10 км {дождь} 9/0
[Ac und]
+22.8 +17.0 70 +28 +28 душно 1011.4 971.1 +32.4 2
21 16.06 ЮЗ 2 10 км 9/0
[Ac und]
+21.6 -15.7 7 +20 +20 1012.2 971.7
00 17.06 штиль 0 10 км 8/0
[As trans]
+20.4 +17.4 83 +23 +23 комфорт 1013.2 972.5
03 17.06 ЮЗ 8 10 км 4/0
[Ac trans]
+19.0 +16.3 84 +20 +20 1013.4 972.5
06 17.06 штиль 0 15 км 3/0
[Ac trans]
+19.8 +16.8 83 +22 +28 комфорт 1014.3 973.5 +18.0
09 17.06 штиль 0 15 км 4/0
[Ac trans]
+23.6 +16.1 63 +27 +45 жарко 1014.0 973.7
12 17.06 штиль 0 15 км 5/0
[Ac trans]
+26.8 +18.9 62 +32 +49 очень
душно
1014.4 974.5
15 17.06 штиль 0 12 км 8/0
[As op]
+25.4 +17.0 60 +29 +33 душно 1012.7 972.7
18 17.06 СВ 8 8000 м слаб. дождь 10/10 1500 м
[Sc]
+19.6 +15.3 76 +21 +21 комфорт 1014.7 973.9 +27.4 0.4
21 17.06 штиль 0 10 км {дождь} 9/9 1200 м
[Sc]
+18.2 +15.1 82 +18 +18 1015.5 974.5
00 18.06 штиль 0 10 км {дождь} 9/9 1200 м
[Sc]
+17.6 +15.3 86 +18 +18 1016.0 974.9 3
03 18.06 штиль 0 10 км 6/6 1500 м
[Sc]
+17.0 +14.6 86 +17 +17 1016.1 974.9
06 18.06 штиль 0 10 км 8/0
[Ac trans]
+17.4 +14.2 81 +17 +21 1016.9 975.7 +16.0 3
09 18.06 штиль 0 10 км 9/0
[Ac und]
+19.4 +16.4 83 +21 +30 комфорт 1017.4 976.4
12 18.06 СВ 4 10 км {дождь} 4/0
[Ac trans]
+24.0 +17.3 66 +28 +37 душно 1015.5 975.3 0.2
15 18.06 штиль 0 10 км 5/5 1500 м
[Cu med, cong]
+27.4 +16.0 50 +31 +35 душно 1013.8 974.1
18 18.06 ЮЗ 8 3000 м слаб. дождь 8/8 1500 м
[Sc]
+22.8 +18.3 76 +28 +28 душно 1014.3 973.9 +28.0 0.4
21 18.06 штиль 0 10 км {ливн. осадки, дождь} 4/0
[Ac trans]
+20.8 +17.2 80 +24 +24 комфорт 1015.2 974.5
00 19.06 штиль 0 10 км 4/0
[Ac trans]
+19.6 +16.3 81 +22 +22 комфорт 1015.7 974.9
03 19.06 штиль 0 10 км ясно +17.4 +14.2 81 +17 +17 1016.0 974.9
06 19.06 штиль 0 15 км ясно +17.6 +14.9 84 +18 +25 1015.6 974.4 +16.0

 

Местоположение метеостанции Кукес (Албания): широта 43.03 долгота 20.42 высота над уровнем моря 354 м.

В архиве по умолчанию представлена погода в Кукесе за последнюю неделю. Архивные данные за месяц целиком и за предыдущие месяцы, начиная с января 2011 года, Вы можете получить, выбрав интересующий диапазон дат из раскрывающегося списка и нажав кнопку "Ввод!".


*Определитесь, кто Вы:
робот инопланетянин человек

Внимание! Время в таблицах - всемирное. Для получения местного времени необходимо прибавить поправку, которая равна 1 ч.

Смотрите также архив погоды в соседних городах и на ближайших метеорологических станциях:

Погода на Копаонике (Сербия) (42 км)
Погода в Женике (Сербия) (44 км)
Погода в Кралево (Сербия) (78 км)
Погода в Плевле (Черногория) (94 км)
Погода в Пожега Ужичка (Сербия) (94 км)
Погода в Златиборе (Сербия) (96 км)
Погода в Крушеваце (Сербия) (96 км)
Погода в Подгорица-Граде (Черногория) (115 км)
Погода в Крагуеваце (Сербия) (119 км)
Погода в Подгорице (Черногория) (121 км)

Пояснения к столбцам:

Ветер - указаны скорость ветра в м/с - средняя за 10 мин, порывы в срок и между сроками (в фигурных скобках) и направление, откуда дует ветер: С - северный, СВ - северо-восточный, В - восточный, ЮВ - юго-восточный, Ю - южный, ЮЗ - юго-западный, З - западный, СЗ - северо-западный.
Видимость - горизонтальная дальность видимости в метрах или километрах. При видимости от 1 до 10 км при отсутствии осадков обычно наблюдается дымка, при ухудшении видимости до 1 км и менее - туман. В сухую погоду видимость может ухудшаться дымом, пылью или мглою.
Явления - указаны атмосферные явления, наблюдавшиеся в срок или в последний час перед сроком; фигурными скобками обозначены явления, наблюдавшиеся между сроками (за 1-3 часа до срока); квадратными скобками обозначены град или гололедные отложения с указанием их диаметра в мм.
Облачность - указаны через наклонную черту общая и нижняя облачность в баллах и высота нижней границы облаков в метрах; квадратными скобками обозначены формы облаков: Ci - перистые, Cs - перисто-слоистые, Cc - перисто-кучевые, Ac - высококучевые, As - высокослоистые, Sc - слоисто-кучевые, Ns - слоисто-дождевые, Cu - кучевые, Cb - кучево-дождевые. Подробнее классификацию облаков см. в Атласе облаков (PDF).
T - Температура воздуха - температура, измеренная на высоте 2 м над землей.
Td - Температура точки росы - температура, при понижении до которой содержащийся в воздухе водяной пар достигнет насыщения.
f - Относительная влажность воздуха - влажноcть воздуха, измеренная на высоте 2 м над землей.
Te - Эффективная температура - температура, которую ощущает одетый по сезону человек в тени. Характеристика душности погоды. При расчете учитывается влияние влажности воздуха и скорости ветра на теплоощущения человека.
Tes - Эффективная температура на солнце - температура, которую ощущает человек, с поправкой на солнечный нагрев. Характеристика знойности погоды. Зависит от высоты солнца над горизонтом, облачности и скорости ветра. Ночью, в пасмурную погоду, а также при ветре 12 м/с и более поправка равна нулю.
P - Атмосферное давление - приведенное к уровню моря атмосферное давление.
Po - Атмосферное давление - измеренное на уровне метеостанции атмосферное давление.
Tmin - Минимальная температура - минимум температуры воздуха на высоте 2 м над землей.
Tmax - Максимальная температура - максимум температуры воздуха на высоте 2 м над землей.
R - Количество осадков - Количество выпавших осадков за период времени, мм. При наведении курсора мыши на число - период времени, за который выпало указанное количество осадков.
R24 - Количество осадков - Количество выпавших осадков за 24 часа, мм.
S - Снежный покров - Высота снежного покрова, см. При наведении курсора мыши на число - состояние снежного покрова и степень покрытия местности в баллах.